Regional Weather Roundup
Issued by NWS

Home | Current Version | Previous Version | Graphics & Text | Print | Product List | Glossary On
Versions: 1 2 3 4 5 6 7 8 9 10 11 12 13 14 15 16 17 18 19 20 21 22 23 24 25 26 27 28 29 30 31 32 33 34 35 36 37 38 39 40 41 42 43 44 45 46 47 48 49 50
000
ASUS45 KBOI 261410
RWRID
WEATHER ROUNDUP FOR IDAHO
NATIONAL WEATHER SERVICE BOISE ID
700 AM MST MON JAN 26 2015

NOTE: "FAIR" INDICATES FEW OR NO CLOUDS BELOW 12000 FEET
WITH NO SIGNIFICANT WEATHER AND/OR OBSTRUCTIONS TO VISIBILITY

IDZ012-014-261500-
SOUTHWEST IDAHO


CITY           SKY/WX    TMP DP  RH WIND       PRES   REMARKS
BOISE          CLEAR     30  27  88 S5        30.34S WCI  25
CALDWELL       CLOUDY    27  19  74 CALM      30.37S VSB 1/2
MOUNTAIN HOME  CLEAR     31  29  92 SE12      30.34S WCI  22
$$

IDZ016-017-261500-
SOUTHCENTRAL IDAHO


CITY           SKY/WX    TMP DP  RH WIND       PRES   REMARKS
BURLEY         CLOUDY    29  27  92 E13       30.36S FOG     WCI  19
JEROME         PTCLDY    29  26  89 NE24      30.33F WCI  15
TWIN FALLS     FOG       31  28  89 E12       30.34F VSB 1/4 WCI  22
$$

IDZ019>023-261500-
SOUTHEAST IDAHO


CITY           SKY/WX    TMP DP  RH WIND       PRES   REMARKS
IDAHO FALLS    CLEAR     20  18  92 N3        30.43R
POCATELLO      FOG       28  28 100 NE6       30.43R VSB 1/4 WCI  22
REXBURG        CLEAR     17  16  95 NE3       30.43S
$$

IDZ006-010-011-018-031-032-261500-
CENTRAL IDAHO MOUNTAINS


CITY           SKY/WX    TMP DP  RH WIND       PRES   REMARKS
MCCALL         FOG       25  21  85 SW3       30.30F VSB 3/4
HAILEY         PTCLDY    28  25  86 NW12      30.39F WCI  18
STANLEY          N/A     13   8  81 CALM      30.43R
SALMON         CLOUDY    25  21  86 CALM      30.40F VSB 1/4
CHALLIS        CLEAR     24  22  91 CALM      30.39S FOG
$$

IDZ002-004-006-007-026-261500-
NORTHERN IDAHO


CITY           SKY/WX    TMP DP  RH WIND       PRES   REMARKS
LEWISTON       PTCLDY    48  37  65 SE17      30.09F
LOWELL           N/A     36  34  92 N3        30.26F
COEUR D`ALENE  CLOUDY    37  36  93 NE10      30.10F VSB 1/2 WCI  30
MULLAN PASS    MOCLDY    43  27  53 S10       30.16F
$$


USA.gov is the U.S. government's official web portal to all federal, state and local government web resources and services.